RH
100 98 100 91 74 79 93 93 86 75 62 59 54 57 58 62 63 74 79 99 94 87 86 54 52 51 50 43 41 44 41 37 34 38 47 56 54 45 40 29 33 46 58 54
84 90 91 95 99 82 62 64 81 91 86 67 72 65 64 68 66 64 95 100 100 97 88 83 66 65 58 55 53 47 44 39 35 34 32 31 32 35 38 35 29 27 35 42
98 98 100 100 97 74 70 67 90 94 93 80 68 69 100 91 96 100 100 96 87 73 86 86 77 55 56 52 45 44 36 34 32 28 29 29 26 22 21 22 25 28 32 37
96 100 100 87 75 93 93 99 84 76 86 96 98 81 88 98 100 100 95 80 70 68 68 65 64 63 55 49 42 38 37 30 33 30 24 21 17 17 14 14 15 16 17 16
100 100 99 98 98 91 72 100 100 83 90 93 86 94 86 100 99 100 100 100 95 83 73 84 77 65 57 48 40 39 33 35 31 24 17 14 12 12 14 13 13 14 14 12
95 97 87 90 100 100 97 99 100 98 85 70 82 96 79 77 99 100 99 87 84 82 83 74 67 67 58 42 39 36 42 39 29 23 19 15 14 13 11 10 10 10 9 9
99 98 91 94 100 100 98 96 86 81 88 98 100 83 75 84 91 88 98 98 75 70 84 79 70 61 54 44 46 47 39 34 30 23 20 19 21 18 15 12 10 8 7 7
75 89 100 100 97 99 81 68 71 75 88 80 74 73 99 100 100 100 100 90 89 84 89 95 78 61 54 53 50 43 36 30 28 23 21 21 17 12 10 8 8 7 5 5
64 66 86 97 91 76 64 73 82 78 75 78 85 100 100 100 100 100 94 87 90 89 97 96 72 59 60 60 47 39 35 32 29 25 19 17 13 12 10 14 13 6 5 5
68 59 62 61 52 51 55 73 85 92 94 92 83 93 99 100 95 94 96 88 97 95 100 84 73 72 64 52 44 38 34 29 24 20 16 24 21 21 15 20 15 6 5 4
54 47 57 62 64 61 71 82 92 97 89 86 88 93 96 90 98 86 71 83 88 98 95 91 77 70 57 50 44 40 30 26 23 19 19 40 43 34 26 30 20 13 5 4
43 37 44 53 63 72 74 83 83 81 85 72 47 43 42 67 81 76 85 84 94 99 100 88 98 69 60 59 46 35 29 25 24 22 29 42 40 45 34 28 31 18 8 4
31 27 32 35 38 34 38 39 33 27 23 19 17 25 44 56 58 57 73 85 96 100 87 100 95 72 75 51 38 34 28 25 29 40 48 57 49 47 32 41 28 28 20 6
15 13 15 18 20 24 20 21 21 21 24 25 28 38 47 48 53 53 78 100 100 85 100 100 98 84 63 43 36 33 30 26 34 58 57 64 49 51 36 40 42 38 18 8
12 14 20 23 25 25 21 20 21 23 23 20 32 35 42 53 84 99 100 94 99 100 100 96 81 70 48 39 35 34 33 33 43 59 60 78 67 61 40 32 41 42 20 12
22 23 23 29 23 22 26 30 25 24 32 40 42 54 73 99 100 90 100 100 100 100 100 92 89 54 46 38 35 34 37 41 57 66 82 80 74 76 67 54 46 66 64 26
22 23 23 27 25 29 32 28 35 42 55 67 78 96 96 99 100 100 100 100 100 100 100 94 76 48 48 40 37 36 40 48 66 83 87 84 80 83 74 71 40 49 85 68
26 25 28 31 32 36 40 62 78 94 96 100 89 86 100 100 100 100 100 100 100 100 89 83 69 52 52 44 40 39 43 50 72 75 89 95 88 94 83 75 81 47 54 97
22 27 34 35 45 70 83 92 99 98 89 81 98 100 100 100 100 100 100 100 84 74 82 65 48 47 50 47 45 42 43 55 76 87 79 90 100 100 99 90 86 81 63 73
27 32 42 58 91 99 99 100 84 74 99 100 100 100 100 100 100 100 100 93 89 89 63 52 57 54 49 46 45 43 42 53 74 89 87 90 100 100 100 100 93 85 94 91
36 40 68 94 98 100 91 90 91 87 85 86 97 100 100 100 100 100 91 82 72 58 55 58 54 48 41 41 42 44 44 48 70 88 98 92 99 100 99 100 100 95 100 95
68 79 100 100 100 90 83 79 99 100 100 100 100 100 100 96 84 77 69 60 58 59 63 53 41 38 38 37 39 41 42 47 58 74 94 98 99 93 91 92 99 97 88 93
89 98 92 98 89 89 89 93 99 100 100 100 98 86 79 69 76 84 71 57 71 65 42 37 35 34 34 33 34 37 39 46 54 65 70 92 96 100 94 88 91 99 88 79
94 89 90 100 100 91 100 100 100 99 85 77 85 75 97 99 72 58 76 81 50 39 36 31 26 24 22 23 27 30 33 44 50 62 72 69 79 84 90 95 95 98 95 97
86 100 100 97 100 100 100 99 90 92 93 89 94 100 85 57 65 88 80 49 41 33 22 15 14 14 13 15 18 22 24 34 46 52 65 71 77 81 84 77 77 80 80 79
91 97 89 99 100 99 92 85 83 96 100 100 95 67 64 70 80 74 62 44 30 18 13 12 11 11 11 12 14 17 20 24 34 45 51 61 66 69 69 71 64 63 66 62
Wind_Speed
66 65 67 69 68 69 71 73 73 74 74 72 70 68 62 62 64 66 67 68 67 68 66 72 72 73 72 71 73 74 75 81 90 94 95 95 96 97 96 91 88 86 84 82
69 69 72 72 71 71 74 77 77 77 79 77 74 72 70 68 67 68 72 73 72 72 76 78 77 77 77 78 80 80 82 84 83 91 100 105 107 105 101 100 99 97 94 91
70 73 76 79 83 82 78 79 81 83 82 81 80 76 72 74 72 71 74 78 81 84 84 81 81 81 81 83 82 84 84 84 85 92 95 101 104 104 102 105 106 107 105 100
72 73 78 82 84 89 88 87 88 89 88 86 87 82 79 78 77 77 81 82 85 87 87 86 86 88 89 86 87 87 87 85 87 86 89 92 95 95 90 88 90 88 86 87
82 85 84 87 91 94 92 92 95 96 95 93 90 94 83 83 82 85 86 87 88 91 90 87 88 90 91 90 89 85 85 84 83 83 81 84 84 80 77 77 76 80 83 82
90 93 94 95 94 95 95 95 98 100 102 99 95 100 80 83 82 86 89 92 93 90 88 91 89 88 91 91 85 80 80 80 79 78 75 72 70 74 73 70 71 72 74 76
98 96 100 103 99 101 99 103 106 105 106 102 99 101 85 83 85 88 92 93 93 87 83 83 86 88 85 82 78 77 74 75 75 76 73 69 69 71 69 69 70 71 71 70
105 104 107 109 108 108 109 110 108 108 105 101 96 93 89 88 89 98 98 88 82 78 79 80 82 82 79 75 76 70 69 70 71 70 66 59 62 61 59 60 60 63 61 56
106 105 110 113 114 115 112 105 104 103 101 98 94 90 92 96 99 92 88 81 75 74 76 77 78 78 72 72 67 65 65 62 64 62 55 51 51 50 48 49 53 57 52 56
109 108 109 114 112 105 102 97 95 95 97 97 91 90 93 92 91 90 88 79 73 73 75 73 72 69 67 64 62 60 58 57 56 53 47 42 45 41 43 44 45 48 43 51
104 100 95 94 93 88 87 86 88 92 94 94 91 91 92 86 85 84 76 73 69 70 68 65 65 61 59 57 56 55 54 53 50 45 41 36 38 39 43 44 42 41 34 37
93 87 84 88 88 85 83 81 81 85 88 90 88 80 80 80 80 74 71 68 66 65 58 55 51 55 54 54 54 54 53 49 44 43 39 36 35 37 43 38 43 33 24 26
91 83 80 80 84 80 76 75 72 74 77 74 71 61 64 66 65 63 60 59 54 47 47 44 51 53 57 52 51 53 50 44 40 38 37 35 35 37 37 35 39 26 22 22
75 68 61 60 62 62 58 57 58 57 57 57 49 50 51 53 53 49 40 31 35 38 39 47 52 54 50 53 50 50 47 41 36 37 38 33 35 32 33 26 34 23 20 24
54 46 47 47 47 47 46 46 49 47 47 41 44 41 41 34 30 29 28 32 29 37 43 51 50 50 49 50 47 44 41 42 36 36 34 32 33 29 27 21 24 13 17 23
35 35 34 36 40 39 37 40 38 37 31 29 30 29 26 22 25 24 22 28 37 42 48 52 46 47 47 45 42 40 39 38 39 36 35 34 31 28 27 20 20 18 14 27
29 27 30 32 33 30 33 33 28 20 16 18 23 20 16 14 15 20 27 32 39 46 48 43 47 47 46 45 42 40 39 38 37 37 38 35 33 33 31 27 20 16 20 26
27 30 28 28 28 27 29 19 14 11 14 18 16 14 12 14 21 28 34 36 37 37 40 45 50 50 50 46 44 41 39 38 39 37 38 39 39 34 32 25 25 21 19 25
29 25 23 24 23 23 19 16 17 19 16 12 11 11 13 20 26 27 31 36 37 42 45 51 52 53 52 49 47 43 40 40 41 41 39 40 42 36 32 29 24 26 21 26
22 21 21 23 23 24 22 20 20 18 14 10 10 13 19 21 26 31 36 39 43 48 52 56 61 59 52 51 49 46 41 40 43 45 42 40 41 39 35 32 30 25 24 26
20 20 25 25 25 28 24 21 13 15 17 16 17 18 19 25 31 36 42 48 53 55 59 62 63 59 56 54 51 46 43 42 44 46 46 44 44 43 39 36 33 32 31 30
19 25 30 27 24 24 21 15 13 11 11 15 17 20 26 33 39 45 50 52 56 61 64 65 61 60 59 55 49 45 44 44 45 48 50 49 48 49 50 45 43 43 41 40
22 32 25 29 22 17 16 15 14 14 18 20 23 28 33 38 42 48 54 57 61 65 64 63 60 56 54 52 48 46 45 46 47 50 52 56 55 54 52 53 51 50 50 49
19 21 18 17 17 16 16 16 17 20 22 23 27 30 35 41 47 50 55 62 64 62 60 58 55 53 51 49 48 46 46 48 49 51 54 55 58 61 61 58 58 58 58 58
13 15 16 13 13 17 19 18 20 20 21 25 29 33 39 44 46 52 61 62 60 58 57 55 52 49 49 48 48 48 47 49 51 54 56 58 60 61 65 65 64 65 66 67
13 17 19 17 18 18 18 18 18 21 25 29 33 41 41 43 47 54 60 58 56 56 53 49 46 43 44 45 47 49 49 51 52 55 57 59 61 63 65 68 68 68 71 72
Wind_Direction
270 273 274 276 281 284 284 284 284 286 288 290 290 292 291 290 289 287 285 285 285 284 285 286 286 287 286 286 283 284 283 278 273 272 271 268 267 266 265 265 263 261 260 261
271 271 274 277 278 282 284 286 288 288 288 290 291 292 293 293 292 286 282 283 283 283 283 284 286 285 285 286 285 284 282 281 282 274 270 270 270 270 269 268 268 265 261 257
274 276 277 279 279 281 282 286 286 286 287 289 291 292 287 290 289 285 280 278 279 281 281 282 283 284 285 285 287 286 284 284 282 277 274 275 275 272 271 270 270 268 266 265
276 277 280 285 283 282 280 282 285 286 286 287 288 289 288 286 285 282 283 284 282 281 281 283 285 286 288 289 288 288 288 287 284 281 278 277 275 276 277 275 272 268 265 262
278 279 282 286 284 282 280 280 282 284 284 284 286 286 287 285 285 282 284 284 286 286 286 286 284 288 290 291 292 289 289 287 286 282 279 277 278 279 277 273 268 265 262 259
273 276 278 279 281 279 280 281 281 281 283 283 285 283 284 284 282 281 282 285 287 284 285 285 289 289 291 292 290 289 288 289 286 285 284 284 284 281 278 277 273 267 262 256
274 277 278 278 279 278 278 279 281 281 282 283 280 280 286 286 282 285 282 285 286 284 285 284 285 289 290 290 290 289 290 288 287 286 286 286 283 280 278 277 273 269 265 260
272 274 278 279 279 278 280 278 280 281 279 279 280 285 285 282 280 281 282 282 282 283 284 284 287 288 288 289 289 292 289 288 286 285 286 284 279 279 276 275 275 270 267 264
270 270 272 275 276 277 278 278 276 277 277 278 279 280 277 277 280 280 282 280 280 283 282 283 285 285 287 287 291 291 290 289 286 286 287 283 280 282 282 278 275 272 269 261
274 272 273 275 275 276 274 273 273 274 276 275 276 275 276 278 277 278 281 280 278 280 280 282 283 284 286 289 291 292 291 288 289 289 286 285 284 282 281 279 279 277 272 260
275 275 274 275 275 272 272 272 273 273 274 276 276 277 278 277 275 276 275 276 276 277 278 279 284 285 288 292 296 295 292 292 290 288 287 283 286 284 283 281 284 282 270 257
273 271 273 273 273 273 274 273 273 273 273 274 274 273 271 269 269 270 272 273 274 274 275 281 281 285 292 299 301 296 295 292 288 289 282 282 279 287 282 289 286 287 283 259
272 274 273 274 272 272 272 274 273 272 272 273 273 270 266 266 267 268 269 269 270 270 276 276 282 289 296 301 300 298 294 289 286 281 281 286 286 283 285 292 287 297 284 256
270 272 274 271 271 272 270 270 272 270 269 268 270 263 262 262 265 266 262 259 259 274 273 277 285 291 297 302 299 298 292 286 280 278 282 288 289 292 285 278 285 299 258 236
270 268 268 270 270 269 273 274 271 266 264 265 261 259 258 258 253 247 248 260 264 270 271 279 289 291 304 301 299 297 286 282 277 276 280 284 288 297 298 290 278 278 227 204
262 259 262 263 265 268 268 263 265 269 271 260 247 242 240 227 233 248 249 257 268 272 276 282 288 295 305 305 301 297 284 278 274 274 276 278 288 294 300 301 282 268 230 202
259 256 254 253 260 260 255 259 267 256 242 225 211 202 206 214 234 247 257 267 272 275 280 284 289 295 307 308 304 299 286 275 272 270 271 270 277 289 291 299 281 270 230 217
248 249 251 251 252 245 246 244 229 198 200 197 195 190 198 228 247 258 267 278 279 278 282 286 289 294 303 305 305 297 285 274 268 268 265 268 274 278 280 283 288 274 250 210
250 252 251 246 236 227 225 192 193 190 192 187 202 222 244 262 271 274 276 277 279 280 284 285 289 295 300 302 303 297 285 272 265 264 264 262 262 265 270 275 275 269 261 233
255 243 226 221 209 199 199 199 208 207 185 220 243 258 267 271 276 275 275 278 279 282 284 292 295 294 295 297 298 292 281 268 261 259 261 258 254 255 259 264 269 264 255 246
246 227 208 202 200 208 206 209 223 235 238 245 251 259 265 270 272 276 277 277 278 284 290 291 290 291 292 292 292 286 278 268 257 253 255 257 250 248 249 250 254 255 255 254
222 195 190 196 205 215 212 223 232 239 231 245 249 255 261 267 271 274 282 288 289 291 289 287 289 291 290 288 284 279 273 265 257 251 248 250 252 251 248 245 245 247 247 246
190 187 198 208 213 216 226 239 235 232 239 247 259 268 274 281 289 289 291 295 294 287 289 292 291 288 284 281 277 272 267 260 257 253 249 246 248 250 250 249 250 250 250 249
192 192 199 199 210 230 237 227 234 244 254 267 275 283 291 289 291 301 304 297 294 296 296 293 289 284 279 275 271 266 261 257 254 253 252 251 252 250 250 248 248 250 251 251
185 189 200 214 234 236 228 237 248 261 274 280 286 288 288 298 307 308 300 300 302 301 298 295 289 283 276 269 265 261 258 255 252 251 251 251 251 253 253 253 252 251 250 250
215 221 225 225 226 232 242 253 266 276 282 287 291 292 300 311 308 308 305 307 307 304 301 296 290 282 274 265 259 257 255 253 252 251 252 253 252 253 255 256 257 257 257 257